Simultaneous Nadir Overpasses (SNOs) Predictions

Prediction of SNOs between GOES-15 and METOP-C Satellite Orbit:

Table of predicted SNOs for the next 14.0 days since TLE Epoch: 10/31/2025
Index Date Time (GOES-15) GOES-15 Lat,Lon METOP-C Lat,Lon Distance(km) Time Diff (sec)
1 11/01/2025 17:08:27 -0.68, 61.67 0.13, 65.39 423.75 80
2 11/03/2025 05:27:19 0.68, 61.58 0.85, 60.82 86.01 80
3 11/04/2025 05:09:20 0.68, 61.59 -0.25, 65.82 481.66 80
4 11/05/2025 17:28:21 -0.67, 61.73 -0.76, 61.22 58.23 80
5 11/08/2025 05:23:53 0.68, 61.69 0.68, 61.66 3.32 80
6 11/10/2025 17:24:54 -0.68, 61.85 -0.63, 62.06 23.59 80
7 11/12/2025 05:41:05 0.66, 61.79 1.65, 57.50 489.97 80
8 11/13/2025 05:23:05 0.67, 61.82 0.53, 62.50 77.28 80
9 11/14/2025 17:39:26 -0.65, 61.95 -1.58, 57.90 461.27 80
